Printer-friendly version

IAU Minor Planet Center

Minor Planet Center

MPEC 2000-N30: 2000 NG11

The following Minor Planet Electronic Circular may be linked-to from your own Web pages, but must not otherwise be redistributed electronically.


Read MPEC 2000-N29 Read MPEC 2000-N31


M.P.E.C. 2000-N30                                Issued 2000 July 13, 15:42 UT

     The Minor Planet Electronic Circulars contain information on unusual
         minor planets and routine data on comets.  They are published
   on behalf of Commission 20 of the International Astronomical Union by the
          Minor Planet Center, Smithsonian Astrophysical Observatory,
                          Cambridge, MA 02138, U.S.A.

             Prepared using the Tamkin Foundation Computer Network

             BMARSDEN@CFA.HARVARD.EDU or GWILLIAMS@CFA.HARVARD.EDU
          URL http://cfa-www.harvard.edu/iau/mpc.html  ISSN 1523-6714

                                   2000 NG11

Observations:
     K00N11G* C2000 07 07.39578 00 00 17.08 -01 38 28.4          18.3        704
     K00N11G  C2000 07 07.40744 00 00 19.04 -01 38 17.4          18.8        704
     K00N11G  C2000 07 07.40814 00 00 19.03 -01 38 16.2          18.2        704
     K00N11G  C2000 07 07.41959 00 00 21.14 -01 38 04.8          18.7        704
     K00N11G  C2000 07 07.42028 00 00 21.13 -01 38 02.7          18.0        704
     K00N11G  C2000 07 07.43188 00 00 23.01 -01 37 53.6          18.9        704
     K00N11G  C2000 07 07.43258 00 00 23.16 -01 37 51.0          18.2        704
     K00N11G  C2000 07 08.31079 00 02 53.42 -01 22 22.8          19.4 V      859
     K00N11G  C2000 07 08.31395 00 02 53.95 -01 22 19.2          18.6 V      859
     K00N11G  C2000 07 08.31736 00 02 54.42 -01 22 16.6          19.0 V      859
     K00N11G  C2000 07 08.32056 00 02 54.95 -01 22 14.3          19.1 V      859
     K00N11G 1C2000 07 08.73858 00 04 07.07 -01 14 52.3          18.3 R      413
     K00N11G 1C2000 07 08.74059 00 04 07.38 -01 14 50.5          18.3 R      413
     K00N11G 1C2000 07 08.74343 00 04 07.88 -01 14 47.2          18.3 R      413
     K00N11G  C2000 07 09.35653 00 05 53.79 -01 04 14.7          17.9        704
     K00N11G  C2000 07 09.36874 00 05 55.98 -01 04 02.9          18.5        704
     K00N11G  C2000 07 09.38095 00 05 58.10 -01 03 48.7          18.6        704
     K00N11G 1C2000 07 09.83986 00 07 16.71 -00 55 32.3          18.2 R      413
     K00N11G 1C2000 07 09.84161 00 07 17.01 -00 55 30.4          18.3 R      413
     K00N11G IC2000 07 13.04546 00 16 38.09 +00 01 11.5                      557
     K00N11G  C2000 07 13.04743 00 16 38.61 +00 01 14.3                      557

Observer details:
413 Siding Spring.  Observer R. H. McNaught.  1.0-m f/8 reflector + CCD.
557 Ondrejov.  Observers M. Wolf, L. Sarounova.  0.65-m f/3.6 reflector + CCD.
704 Lincoln Laboratory ETS, New Mexico.  Observers M. Blythe, F. Shelly,
    M. Bezpalko, M. Elowitz, R. Huber, L. Manguso.  Measurers J. Stuart,
    R. Sayer, J. B. Evans.  1.0-m f/2.15 reflector + CCD.
859 Wykrota Observatory-CEAMIG.  Observer C. Jacques.  0.3-m f/3.3
    Schmidt-Cassegrain + CCD.

Orbital elements:
2000 NG11
Epoch 2000 June 25.0 TT = JDT 2451720.5                 Williams
M 328.38527              (2000.0)            P               Q
n   0.35046734     Peri.  316.18704     +0.95610267     -0.29275980
a   1.9923747      Node    60.84016     +0.27267580     +0.87308166
e   0.3961091      Incl.    0.82834     +0.10731071     +0.38989758
P   2.81           H   17.1           G   0.15
From 21 observations 2000 July 7-13.

Ephemeris:
2000 NG11                a,e,i = 1.99, 0.40, 1                   q = 1.2032
Date    TT    R. A. (2000) Decl.     Delta      r     Elong.  Phase     V
2000 07 05    23 53.50   -02 19.7    0.758    1.423   105.7    43.5    18.9
2000 07 10    00 07.74   -00 52.8    0.715    1.400   106.6    44.1    18.8
2000 07 15    00 22.42   +00 36.6    0.674    1.378   107.4    44.7    18.7
2000 07 20    00 37.57   +02 08.4    0.636    1.356   108.1    45.4    18.5
2000 07 25    00 53.20   +03 42.1    0.601    1.336   108.7    46.1    18.4
2000 07 30    01 09.32   +05 17.2    0.569    1.316   109.1    46.8    18.2
2000 08 04    01 25.92   +06 52.7    0.539    1.298   109.5    47.5    18.1
2000 08 09    01 42.97   +08 27.9    0.512    1.281   109.8    48.1    18.0
2000 08 14    02 00.45   +10 01.9    0.488    1.266   110.0    48.8    17.9
2000 08 19    02 18.28   +11 33.4    0.466    1.252   110.1    49.4    17.8
2000 08 24    02 36.37   +13 01.3    0.447    1.239   110.3    49.9    17.7
2000 08 29    02 54.55   +14 24.2    0.430    1.228   110.5    50.4    17.6
2000 09 03    03 12.67   +15 41.2    0.415    1.220   110.8    50.7    17.5
2000 09 08    03 30.55   +16 51.2    0.403    1.212   111.2    50.8    17.4
2000 09 13    03 48.00   +17 53.9    0.392    1.207   111.7    50.7    17.4
2000 09 18    04 04.82   +18 49.0    0.383    1.204   112.5    50.4    17.3
2000 09 23    04 20.78   +19 36.5    0.375    1.203   113.5    49.9    17.2
2000 09 28    04 35.65   +20 16.8    0.368    1.204   114.9    49.0    17.2
2000 10 03    04 49.21   +20 50.4    0.362    1.207   116.6    47.8    17.1
2000 10 08    05 01.32   +21 18.5    0.358    1.212   118.7    46.3    17.0
2000 10 13    05 11.83   +21 42.0    0.354    1.219   121.1    44.5    17.0
2000 10 18    05 20.59   +22 01.9    0.351    1.228   124.0    42.3    16.9
2000 10 23    05 27.48   +22 19.1    0.349    1.238   127.4    39.7    16.8
2000 10 28    05 32.40   +22 34.3    0.348    1.250   131.2    36.7    16.8
2000 11 02    05 35.33   +22 48.2    0.348    1.264   135.6    33.3    16.7
2000 11 07    05 36.33   +23 00.9    0.350    1.280   140.3    29.6    16.6
2000 11 12    05 35.52   +23 12.6    0.353    1.297   145.5    25.6    16.6
2000 11 17    05 33.10   +23 23.1    0.359    1.315   151.1    21.3    16.5
2000 11 22    05 29.33   +23 31.9    0.368    1.334   157.0    16.8    16.4
2000 11 27    05 24.58   +23 38.8    0.380    1.354   163.1    12.2    16.4
2000 12 02    05 19.29   +23 43.5    0.395    1.376   169.4     7.6    16.3
2000 12 07    05 13.92   +23 46.3    0.414    1.398   175.6     3.1    16.2
2000 12 12    05 08.87   +23 47.5    0.437    1.421   177.9     1.5    16.3
2000 12 17    05 04.46   +23 47.7    0.464    1.445   171.9     5.5    16.7
2000 12 22    05 00.92   +23 47.3    0.495    1.469   166.0     9.3    17.0
2000 12 27    04 58.43   +23 46.9    0.530    1.494   160.4    12.8    17.3
2001 01 01    04 57.08   +23 47.1    0.570    1.519   155.0    15.9    17.7
2001 01 06    04 56.89   +23 48.1    0.613    1.544   149.8    18.7    17.9
2001 01 11    04 57.80   +23 50.2    0.660    1.570   145.0    21.1    18.2
2001 01 16    04 59.75   +23 53.1    0.710    1.596   140.3    23.2    18.5
2001 01 21    05 02.64   +23 56.7    0.764    1.622   135.9    25.0    18.7
2001 01 26    05 06.41   +24 01.0    0.821    1.648   131.7    26.5    19.0
2001 01 31    05 10.96   +24 05.6    0.880    1.675   127.6    27.8    19.2

2001 02 10    05 22.09   +24 14.8    1.007    1.727   120.1    29.6    19.6
2001 02 20    05 35.34   +24 22.0    1.143    1.779   113.0    30.8    20.0
2001 03 02    05 50.24   +24 25.4    1.286    1.831   106.3    31.3    20.3
2001 03 12    06 06.38   +24 23.4    1.436    1.882   100.0    31.3    20.6
2001 03 22    06 23.38   +24 14.8    1.589    1.932    93.9    31.0    20.9
2001 04 01    06 41.01   +23 59.0    1.746    1.981    88.0    30.3    21.1
2001 04 11    06 59.03   +23 35.4    1.903    2.029    82.3    29.3    21.3
2001 04 21    07 17.27   +23 03.9    2.061    2.076    76.8    28.1    21.5
2001 05 01    07 35.59   +22 24.5    2.217    2.121    71.3    26.7    21.7
2001 05 11    07 53.88   +21 37.4    2.371    2.166    66.0    25.2    21.8

Gareth V. Williams           (C) Copyright 2000 MPC           M.P.E.C. 2000-N30

Read MPEC 2000-N29 Read MPEC 2000-N31


Our Web policy. Index to the CBAT/MPC/ICQ pages.


Valid HTML 4.01!